QPF
0.00 0.00 0.00 0.00 0.00 0.00 0.00 0.00 0.00 0.00 0.00 0.00 0.00 0.00 0.00 0.00 0.00 0.00 0.01 0.01 0.01 0.01 0.00 0.00 0.00 0.00 0.00 0.00 0.00 0.00 0.00 0.00 0.00 0.00 0.00 0.00 0.00 0.00 0.00 0.00 0.00 0.00 0.00 0.00
0.00 0.00 0.00 0.00 0.00 0.00 0.00 0.00 0.00 0.00 0.00 0.00 0.00 0.00 0.00 0.00 0.00 0.00 0.00 0.01 0.00 0.00 0.00 0.00 0.00 0.00 0.00 0.00 0.00 0.00 0.00 0.00 0.00 0.00 0.00 0.00 0.00 0.00 0.00 0.00 0.00 0.00 0.00 0.00
0.00 0.00 0.00 0.00 0.00 0.00 0.00 0.00 0.00 0.00 0.00 0.00 0.00 0.00 0.00 0.00 0.00 0.00 0.00 0.00 0.00 0.00 0.00 0.00 0.00 0.00 0.00 0.00 0.00 0.00 0.00 0.00 0.00 0.00 0.00 0.00 0.00 0.00 0.00 0.00 0.00 0.00 0.00 0.00
0.00 0.00 0.00 0.00 0.00 0.00 0.00 0.00 0.00 0.00 0.00 0.00 0.00 0.00 0.00 0.00 0.00 0.00 0.00 0.00 0.00 0.00 0.00 0.00 0.00 0.00 0.00 0.00 0.00 0.00 0.00 0.00 0.00 0.00 0.00 0.00 0.00 0.00 0.00 0.00 0.00 0.00 0.00 0.00
0.00 0.00 0.00 0.00 0.00 0.00 0.00 0.00 0.00 0.00 0.00 0.00 0.00 0.00 0.00 0.00 0.00 0.00 0.00 0.00 0.00 0.00 0.00 0.00 0.00 0.00 0.00 0.00 0.00 0.00 0.00 0.00 0.00 0.00 0.00 0.00 0.00 0.00 0.00 0.00 0.00 0.00 0.00 0.00
0.00 0.00 0.00 0.00 0.00 0.00 0.00 0.00 0.00 0.00 0.00 0.00 0.00 0.00 0.00 0.00 0.00 0.00 0.00 0.00 0.00 0.00 0.00 0.00 0.00 0.00 0.00 0.00 0.00 0.00 0.00 0.00 0.00 0.00 0.00 0.00 0.00 0.00 0.00 0.00 0.00 0.00 0.00 0.00
0.00 0.00 0.00 0.00 0.00 0.00 0.00 0.00 0.00 0.00 0.00 0.00 0.00 0.00 0.00 0.00 0.00 0.00 0.00 0.00 0.00 0.00 0.00 0.00 0.00 0.00 0.00 0.00 0.00 0.00 0.00 0.00 0.00 0.00 0.00 0.00 0.00 0.00 0.00 0.00 0.00 0.00 0.00 0.00
0.00 0.00 0.00 0.00 0.00 0.00 0.00 0.00 0.00 0.00 0.00 0.00 0.00 0.00 0.00 0.00 0.00 0.00 0.00 0.00 0.00 0.00 0.00 0.00 0.00 0.00 0.00 0.00 0.00 0.00 0.00 0.00 0.00 0.00 0.00 0.00 0.00 0.00 0.00 0.00 0.00 0.00 0.00 0.00
0.00 0.00 0.00 0.00 0.00 0.00 0.00 0.00 0.00 0.00 0.00 0.00 0.00 0.00 0.00 0.00 0.00 0.00 0.00 0.00 0.00 0.00 0.00 0.00 0.00 0.00 0.00 0.00 0.00 0.00 0.00 0.00 0.00 0.00 0.00 0.00 0.00 0.00 0.00 0.00 0.00 0.00 0.00 0.00
0.00 0.00 0.00 0.00 0.00 0.00 0.00 0.00 0.00 0.00 0.00 0.00 0.00 0.00 0.00 0.00 0.00 0.00 0.00 0.00 0.00 0.00 0.00 0.00 0.00 0.00 0.00 0.00 0.00 0.00 0.00 0.00 0.00 0.00 0.00 0.00 0.00 0.00 0.00 0.00 0.00 0.00 0.00 0.00
0.00 0.00 0.00 0.00 0.00 0.00 0.00 0.00 0.00 0.00 0.00 0.00 0.00 0.00 0.00 0.00 0.00 0.00 0.00 0.00 0.00 0.00 0.00 0.00 0.00 0.00 0.00 0.00 0.00 0.00 0.00 0.00 0.00 0.00 0.00 0.00 0.00 0.00 0.00 0.00 0.00 0.00 0.00 0.00
0.00 0.00 0.00 0.00 0.00 0.00 0.00 0.00 0.00 0.00 0.00 0.00 0.00 0.00 0.00 0.00 0.00 0.00 0.00 0.00 0.00 0.00 0.00 0.00 0.00 0.00 0.00 0.00 0.00 0.00 0.00 0.00 0.00 0.00 0.00 0.00 0.00 0.00 0.00 0.00 0.00 0.00 0.00 0.00
0.00 0.00 0.00 0.00 0.00 0.00 0.00 0.00 0.00 0.00 0.00 0.00 0.00 0.00 0.00 0.00 0.00 0.00 0.00 0.00 0.00 0.00 0.00 0.00 0.00 0.00 0.00 0.00 0.00 0.00 0.00 0.00 0.00 0.00 0.00 0.00 0.00 0.00 0.00 0.00 0.00 0.00 0.00 0.00
0.00 0.00 0.00 0.00 0.00 0.00 0.00 0.00 0.00 0.00 0.00 0.00 0.00 0.00 0.00 0.00 0.00 0.00 0.00 0.00 0.00 0.00 0.00 0.00 0.00 0.00 0.00 0.00 0.00 0.00 0.00 0.00 0.00 0.00 0.00 0.00 0.00 0.00 0.00 0.00 0.00 0.00 0.00 0.00
0.00 0.00 0.00 0.00 0.00 0.00 0.00 0.00 0.00 0.00 0.00 0.00 0.00 0.00 0.00 0.00 0.00 0.00 0.00 0.00 0.00 0.00 0.00 0.00 0.00 0.00 0.00 0.00 0.00 0.00 0.00 0.00 0.00 0.00 0.00 0.00 0.00 0.00 0.00 0.00 0.00 0.00 0.00 0.00
0.00 0.00 0.00 0.00 0.00 0.00 0.00 0.00 0.00 0.00 0.00 0.00 0.00 0.00 0.00 0.00 0.00 0.00 0.00 0.00 0.00 0.00 0.00 0.00 0.00 0.00 0.00 0.00 0.00 0.00 0.00 0.00 0.00 0.00 0.00 0.00 0.00 0.00 0.00 0.00 0.00 0.00 0.00 0.00
0.00 0.00 0.00 0.00 0.00 0.00 0.00 0.00 0.00 0.00 0.00 0.00 0.00 0.00 0.00 0.00 0.00 0.00 0.00 0.00 0.00 0.00 0.00 0.00 0.00 0.00 0.00 0.00 0.00 0.00 0.00 0.00 0.00 0.00 0.00 0.00 0.00 0.00 0.00 0.00 0.00 0.00 0.00 0.00
0.00 0.00 0.00 0.00 0.00 0.00 0.00 0.00 0.00 0.00 0.00 0.00 0.00 0.00 0.00 0.00 0.00 0.00 0.00 0.00 0.00 0.00 0.00 0.00 0.01 0.00 0.00 0.00 0.00 0.00 0.00 0.00 0.00 0.00 0.00 0.00 0.00 0.00 0.00 0.00 0.00 0.00 0.00 0.00
0.00 0.00 0.00 0.00 0.00 0.00 0.00 0.00 0.00 0.00 0.00 0.00 0.00 0.00 0.00 0.00 0.00 0.00 0.00 0.00 0.00 0.00 0.00 0.00 0.01 0.00 0.00 0.00 0.00 0.00 0.00 0.00 0.00 0.00 0.00 0.00 0.00 0.00 0.00 0.00 0.00 0.00 0.00 0.00
0.00 0.00 0.00 0.00 0.00 0.00 0.00 0.00 0.00 0.00 0.00 0.00 0.00 0.00 0.00 0.00 0.00 0.00 0.00 0.00 0.00 0.00 0.00 0.00 0.01 0.00 0.00 0.00 0.00 0.00 0.00 0.00 0.00 0.00 0.00 0.00 0.00 0.00 0.00 0.00 0.00 0.00 0.00 0.00
0.00 0.00 0.00 0.00 0.00 0.00 0.00 0.00 0.00 0.00 0.00 0.00 0.00 0.00 0.00 0.00 0.00 0.00 0.00 0.00 0.00 0.00 0.00 0.00 0.00 0.00 0.00 0.00 0.00 0.00 0.00 0.00 0.00 0.00 0.00 0.00 0.00 0.00 0.00 0.00 0.00 0.00 0.00 0.00
0.00 0.00 0.00 0.00 0.00 0.00 0.00 0.00 0.00 0.00 0.00 0.00 0.00 0.00 0.00 0.00 0.00 0.01 0.00 0.00 0.00 0.00 0.00 0.00 0.00 0.00 0.00 0.00 0.00 0.00 0.00 0.00 0.00 0.00 0.00 0.00 0.00 0.00 0.00 0.00 0.00 0.00 0.00 0.00
0.00 0.00 0.00 0.00 0.00 0.00 0.00 0.00 0.00 0.00 0.00 0.00 0.00 0.00 0.00 0.00 0.00 0.00 0.00 0.00 0.00 0.00 0.00 0.00 0.00 0.00 0.00 0.00 0.00 0.00 0.00 0.00 0.00 0.00 0.00 0.00 0.00 0.00 0.00 0.00 0.00 0.00 0.00 0.00
0.00 0.00 0.00 0.00 0.00 0.00 0.00 0.00 0.00 0.00 0.00 0.00 0.00 0.00 0.00 0.00 0.00 0.00 0.00 0.00 0.00 0.00 0.00 0.00 0.00 0.00 0.00 0.00 0.00 0.00 0.00 0.00 0.00 0.00 0.00 0.00 0.00 0.00 0.00 0.00 0.00 0.00 0.00 0.00
0.00 0.00 0.00 0.00 0.00 0.00 0.00 0.00 0.00 0.00 0.00 0.00 0.00 0.00 0.00 0.00 0.00 0.00 0.00 0.00 0.00 0.00 0.00 0.00 0.00 0.00 0.00 0.00 0.00 0.00 0.00 0.00 0.00 0.00 0.00 0.00 0.00 0.00 0.00 0.00 0.00 0.00 0.00 0.00
0.00 0.00 0.00 0.00 0.00 0.00 0.00 0.00 0.00 0.00 0.00 0.00 0.00 0.00 0.00 0.00 0.00 0.00 0.00 0.00 0.00 0.00 0.00 0.00 0.00 0.00 0.00 0.00 0.00 0.00 0.00 0.00 0.00 0.00 0.00 0.00 0.00 0.00 0.00 0.00 0.00 0.00 0.00 0.00
0.00 0.00 0.00 0.00 0.00 0.00 0.00 0.00 0.00 0.00 0.00 0.00 0.00 0.00 0.00 0.00 0.00 0.00 0.00 0.00 0.00 0.00 0.00 0.00 0.00 0.00 0.00 0.00 0.00 0.00 0.00 0.00 0.00 0.00 0.00 0.00 0.00 0.00 0.00 0.00 0.00 0.00 0.00 0.00
MSLP
1019.12 1018.74 1018.33 1017.92 1017.24 1016.68 1016.72 1017.53 1017.77 1017.26 1017.36 1017.51 1017.58 1017.60 1017.02 1016.22 1015.29 1014.80 1014.22 1014.11 1013.85 1013.85 1013.89 1014.25 1014.62 1014.74 1014.84 1015.20 1015.65 1016.50 1016.78 1016.82 1016.69 1015.92 1015.49 1014.99 1014.80 1014.86 1015.24 1015.60 1015.73 1015.22 1014.43 1013.15
1018.85 1018.57 1018.26 1017.90 1017.33 1017.06 1017.72 1018.34 1018.49 1017.44 1017.49 1018.54 1018.53 1017.78 1017.07 1016.31 1015.77 1015.19 1014.50 1014.38 1014.30 1014.08 1013.98 1013.97 1013.83 1013.95 1014.48 1014.85 1015.10 1015.62 1016.04 1016.24 1016.14 1015.78 1015.00 1014.64 1014.56 1014.75 1014.73 1014.90 1014.93 1015.08 1014.07 1013.09
1018.80 1018.64 1018.35 1017.92 1017.45 1017.20 1017.89 1019.17 1019.67 1019.32 1019.02 1019.57 1019.42 1018.79 1018.01 1016.93 1016.10 1015.53 1015.23 1014.90 1014.21 1014.05 1013.80 1013.97 1014.02 1013.99 1014.83 1015.17 1015.27 1015.42 1015.50 1015.58 1015.01 1014.50 1013.73 1013.50 1014.05 1014.28 1014.60 1014.71 1014.95 1014.54 1013.81 1012.99
1018.77 1018.62 1018.31 1017.91 1017.47 1017.31 1017.99 1019.78 1021.19 1021.26 1020.90 1020.54 1020.35 1019.56 1018.98 1018.07 1017.21 1016.56 1015.85 1015.06 1015.17 1014.94 1014.32 1014.18 1014.36 1014.41 1015.20 1015.70 1015.79 1015.86 1015.78 1015.57 1014.66 1013.69 1013.14 1013.09 1012.93 1013.18 1013.95 1014.37 1014.37 1013.86 1013.06 1012.80
1018.69 1018.56 1018.36 1017.93 1017.50 1017.38 1018.50 1020.43 1021.13 1021.49 1021.33 1021.19 1020.78 1020.39 1019.95 1019.24 1018.45 1017.75 1016.60 1015.91 1015.67 1015.14 1014.78 1014.96 1015.00 1015.04 1014.66 1015.00 1015.92 1016.01 1015.96 1015.17 1014.31 1013.68 1012.95 1012.48 1012.64 1012.71 1013.12 1013.40 1013.68 1013.25 1012.33 1012.04
1018.60 1018.57 1018.46 1018.15 1017.60 1017.44 1019.28 1020.67 1020.90 1020.82 1021.60 1021.45 1021.19 1021.10 1020.50 1019.84 1019.17 1017.83 1017.16 1016.91 1016.18 1015.25 1015.15 1015.20 1014.65 1014.87 1014.52 1014.59 1014.78 1015.30 1015.40 1014.87 1014.25 1013.38 1012.70 1012.51 1012.53 1012.31 1012.76 1013.00 1013.05 1012.60 1012.23 1011.65
1018.44 1018.57 1018.64 1018.51 1018.21 1018.29 1019.29 1020.42 1020.77 1021.16 1021.74 1021.37 1021.18 1021.09 1020.78 1020.17 1019.70 1018.99 1017.72 1016.94 1016.27 1015.24 1014.81 1014.06 1013.85 1014.10 1014.12 1014.17 1014.05 1014.03 1014.21 1014.12 1013.70 1013.37 1013.00 1012.67 1011.91 1011.39 1011.31 1011.87 1012.08 1011.96 1011.60 1011.52
1018.29 1018.51 1018.70 1018.72 1018.59 1018.70 1019.46 1020.27 1020.64 1020.97 1021.53 1021.34 1021.11 1021.04 1020.77 1020.22 1019.67 1019.10 1018.28 1017.11 1016.58 1015.82 1015.33 1014.41 1013.99 1014.01 1014.04 1013.80 1013.47 1013.48 1013.42 1013.28 1013.50 1013.41 1012.96 1012.09 1011.48 1011.41 1011.40 1011.40 1011.53 1011.44 1011.59 1011.51
1017.98 1018.47 1018.71 1018.77 1018.82 1018.97 1019.56 1020.16 1020.22 1020.59 1021.18 1021.36 1020.97 1021.06 1021.03 1020.96 1020.30 1019.33 1018.75 1017.59 1016.72 1015.98 1015.49 1015.24 1014.84 1014.79 1014.62 1014.30 1013.57 1013.15 1013.07 1012.98 1013.35 1013.50 1013.07 1012.46 1012.00 1011.34 1011.17 1011.36 1011.43 1011.12 1011.20 1011.54
1017.66 1018.31 1018.63 1018.77 1018.83 1018.99 1019.45 1020.21 1020.06 1020.43 1021.09 1021.23 1021.08 1021.04 1021.15 1020.95 1020.69 1020.46 1019.76 1018.78 1017.48 1016.69 1016.00 1015.73 1015.80 1015.42 1015.00 1014.94 1014.63 1014.16 1013.91 1013.75 1013.74 1013.54 1013.17 1012.69 1012.04 1011.70 1011.44 1011.74 1012.17 1011.16 1011.05 1011.33
1017.42 1018.12 1018.43 1018.61 1018.75 1019.00 1019.54 1020.16 1019.89 1020.39 1020.99 1021.08 1020.89 1020.77 1020.90 1020.83 1020.86 1020.88 1020.10 1019.46 1018.91 1018.14 1017.35 1016.97 1016.40 1016.10 1015.92 1015.47 1014.93 1014.63 1014.58 1014.52 1014.27 1013.79 1013.27 1013.03 1012.24 1011.81 1011.82 1011.94 1011.34 1011.18 1011.31 1011.52
1017.14 1017.84 1018.17 1018.40 1018.57 1018.85 1019.31 1020.00 1019.81 1019.91 1020.70 1020.91 1020.84 1020.50 1020.30 1020.18 1020.20 1020.60 1020.65 1020.63 1020.28 1019.55 1019.02 1018.19 1017.25 1016.43 1016.42 1016.16 1015.49 1014.81 1014.76 1014.54 1014.39 1014.04 1013.41 1012.73 1012.46 1012.35 1012.18 1012.02 1011.90 1011.96 1011.94 1012.15
1016.79 1017.58 1017.87 1018.20 1018.50 1018.74 1019.07 1019.80 1019.84 1020.08 1020.61 1020.86 1020.73 1020.26 1020.19 1020.03 1020.12 1020.06 1020.67 1020.60 1020.15 1020.24 1020.27 1019.53 1018.36 1017.04 1016.50 1016.35 1015.82 1015.34 1014.56 1014.33 1014.27 1013.88 1013.14 1012.74 1012.49 1012.34 1012.30 1012.29 1012.42 1012.55 1012.51 1012.66
1016.53 1017.30 1017.63 1018.04 1018.39 1018.65 1018.94 1019.61 1019.85 1020.14 1020.67 1020.86 1020.72 1020.08 1020.04 1019.77 1019.79 1019.99 1020.15 1020.24 1020.35 1020.43 1020.32 1019.73 1018.51 1017.14 1016.58 1016.25 1016.00 1015.77 1014.80 1014.51 1014.13 1013.74 1013.21 1012.98 1012.80 1012.80 1012.81 1012.95 1013.12 1013.17 1013.32 1013.49
1016.30 1016.98 1017.46 1017.89 1018.34 1018.81 1019.19 1019.81 1020.03 1020.06 1020.55 1020.53 1020.56 1020.21 1020.01 1019.70 1019.59 1019.66 1020.10 1020.49 1020.67 1020.73 1020.22 1019.49 1018.18 1016.89 1016.50 1016.04 1015.98 1015.33 1014.47 1014.19 1014.20 1013.83 1013.32 1013.29 1013.25 1013.24 1013.31 1013.58 1013.85 1013.95 1014.00 1014.25
1016.21 1016.83 1017.30 1017.77 1018.35 1018.80 1019.49 1020.11 1020.11 1019.82 1020.00 1020.52 1020.76 1020.54 1020.20 1019.78 1019.49 1019.61 1019.93 1020.13 1020.35 1020.64 1020.23 1019.10 1017.82 1016.56 1016.39 1015.97 1015.63 1014.34 1014.08 1013.89 1013.86 1013.71 1013.46 1013.43 1013.48 1013.65 1013.76 1014.00 1014.21 1014.40 1014.58 1014.71
1016.18 1016.66 1017.18 1017.76 1018.38 1019.08 1019.44 1019.93 1020.18 1019.84 1019.95 1020.44 1021.10 1020.88 1020.27 1019.97 1019.79 1019.88 1020.04 1020.23 1020.10 1020.08 1019.76 1018.83 1017.39 1016.36 1015.81 1015.61 1015.24 1014.03 1013.97 1013.84 1013.75 1013.75 1013.80 1014.01 1013.93 1014.18 1014.38 1014.48 1014.69 1014.86 1015.20 1015.36
1016.06 1016.64 1017.13 1017.92 1018.43 1018.99 1019.46 1019.90 1019.67 1019.91 1020.30 1020.81 1021.61 1021.48 1020.85 1020.35 1020.24 1020.12 1019.79 1019.79 1019.75 1019.47 1019.06 1017.99 1017.02 1016.14 1015.79 1015.14 1013.98 1014.01 1014.01 1014.07 1014.03 1014.12 1014.07 1014.09 1014.31 1014.60 1014.79 1014.90 1015.04 1015.34 1015.62 1015.80
1015.98 1016.55 1017.58 1018.30 1018.89 1019.51 1019.93 1019.68 1019.85 1020.07 1020.81 1021.66 1022.34 1022.50 1021.99 1020.90 1020.65 1020.28 1019.67 1019.42 1019.09 1018.48 1018.23 1017.16 1016.49 1016.11 1015.71 1014.83 1014.60 1014.37 1014.38 1014.42 1014.34 1014.40 1014.48 1014.55 1014.73 1015.04 1015.21 1015.34 1015.52 1015.75 1015.98 1016.05
1016.02 1017.04 1017.86 1019.02 1019.72 1019.60 1019.60 1020.04 1020.55 1020.70 1021.20 1021.62 1022.55 1022.91 1022.40 1021.92 1021.19 1020.44 1019.92 1018.71 1018.11 1017.50 1016.52 1015.86 1015.82 1015.04 1014.93 1015.30 1015.48 1015.42 1015.11 1014.89 1014.81 1014.81 1015.01 1015.15 1015.21 1015.35 1015.62 1015.85 1015.99 1016.11 1016.26 1016.34
1016.15 1017.26 1018.39 1019.62 1019.66 1019.98 1020.48 1021.18 1021.59 1021.89 1022.18 1022.29 1022.42 1022.70 1022.56 1021.73 1021.53 1021.02 1020.15 1018.99 1017.73 1016.84 1016.13 1016.18 1015.58 1015.55 1016.05 1016.35 1016.15 1016.03 1015.81 1015.49 1015.38 1015.35 1015.44 1015.60 1015.71 1015.89 1016.09 1016.38 1016.64 1016.81 1016.90 1016.97
1015.23 1016.52 1017.96 1019.38 1020.09 1020.99 1021.95 1022.46 1022.49 1022.61 1022.87 1022.59 1022.66 1022.54 1022.43 1021.80 1021.28 1020.72 1020.02 1019.09 1017.97 1016.74 1016.18 1016.18 1016.03 1016.69 1016.80 1016.79 1016.71 1016.60 1016.45 1016.27 1016.20 1016.21 1016.29 1016.37 1016.52 1016.67 1016.78 1017.09 1017.38 1017.55 1017.63 1017.58
1015.81 1016.49 1018.42 1019.36 1020.90 1021.85 1022.58 1023.05 1023.46 1023.49 1023.15 1023.04 1023.01 1023.00 1022.61 1021.80 1021.48 1021.00 1020.09 1018.76 1017.47 1016.60 1016.34 1016.32 1016.97 1017.34 1017.21 1017.21 1016.99 1016.91 1016.90 1016.79 1016.74 1016.81 1016.84 1016.93 1017.15 1017.40 1017.61 1017.93 1018.12 1018.18 1018.23 1018.25
1015.76 1017.19 1019.24 1019.75 1020.95 1021.39 1021.72 1021.95 1022.24 1022.63 1022.81 1023.07 1023.20 1023.38 1022.94 1022.30 1021.72 1020.87 1020.11 1018.33 1017.38 1016.66 1016.75 1017.06 1017.70 1017.92 1017.84 1017.45 1017.15 1017.00 1016.95 1017.12 1017.22 1017.36 1017.48 1017.54 1017.65 1018.06 1018.34 1018.54 1018.68 1018.66 1018.63 1018.57
1016.66 1017.41 1018.95 1020.08 1020.34 1020.91 1021.38 1021.72 1022.15 1022.54 1022.54 1023.01 1023.29 1023.24 1023.30 1022.87 1022.15 1021.35 1020.28 1019.02 1017.56 1017.82 1018.46 1018.55 1018.51 1018.08 1017.99 1017.54 1017.10 1016.91 1016.98 1017.26 1017.76 1018.03 1018.14 1018.19 1018.30 1018.44 1018.75 1019.05 1019.10 1019.05 1018.97 1018.91
1017.28 1018.36 1019.17 1020.07 1020.85 1021.76 1021.67 1021.80 1022.15 1022.23 1022.42 1022.72 1022.99 1023.21 1023.38 1023.17 1022.68 1021.93 1020.43 1019.47 1019.11 1019.00 1018.94 1018.69 1018.49 1018.06 1017.81 1017.43 1016.98 1016.69 1016.86 1017.34 1017.74 1018.05 1018.24 1018.37 1018.46 1018.56 1018.89 1019.36 1019.46 1019.37 1019.35 1019.48
1017.97 1018.86 1018.70 1019.43 1020.35 1020.95 1021.56 1021.70 1021.81 1021.66 1022.11 1022.64 1022.94 1023.39 1023.21 1023.13 1022.88 1022.01 1020.42 1019.90 1019.32 1019.01 1019.00 1018.82 1018.66 1018.19 1017.58 1017.25 1016.89 1016.69 1017.01 1017.54 1017.96 1018.15 1018.32 1018.40 1018.45 1018.65 1018.96 1019.35 1019.48 1019.44 1019.33 1019.24
Thickness
5558 5556 5553 5553 5552 5551 5545 5529 5511 5514 5500 5476 5457 5446 5451 5458 5462 5465 5469 5465 5474 5470 5469 5453 5445 5442 5437 5431 5421 5403 5407 5412 5421 5442 5454 5468 5481 5481 5482 5476 5500 5472 5484 5535
5556 5553 5550 5549 5549 5546 5534 5521 5508 5510 5500 5462 5467 5463 5459 5455 5455 5458 5464 5462 5467 5468 5465 5469 5467 5461 5441 5437 5436 5419 5420 5413 5426 5437 5462 5471 5475 5482 5487 5488 5491 5479 5511 5536
5552 5548 5545 5544 5545 5542 5531 5511 5493 5490 5483 5461 5461 5449 5438 5440 5450 5456 5456 5457 5467 5466 5469 5466 5467 5469 5440 5440 5443 5444 5441 5429 5449 5452 5470 5480 5478 5484 5484 5492 5490 5499 5508 5532
5547 5544 5541 5539 5541 5539 5528 5502 5482 5477 5451 5462 5443 5441 5428 5428 5433 5440 5450 5460 5452 5454 5465 5464 5464 5466 5440 5432 5431 5436 5438 5424 5444 5462 5481 5487 5492 5495 5492 5479 5501 5517 5529 5531
5543 5541 5537 5536 5536 5534 5518 5502 5487 5471 5460 5450 5447 5431 5422 5419 5420 5427 5443 5451 5444 5451 5462 5458 5457 5454 5462 5454 5430 5431 5431 5450 5459 5474 5485 5494 5495 5502 5500 5507 5504 5518 5532 5537
5540 5537 5533 5531 5532 5532 5510 5494 5487 5480 5464 5453 5442 5424 5419 5416 5412 5430 5437 5437 5440 5459 5456 5446 5450 5449 5455 5456 5451 5443 5442 5451 5458 5479 5489 5491 5497 5496 5496 5503 5505 5517 5521 5538
5537 5532 5528 5525 5524 5522 5509 5495 5485 5477 5472 5457 5448 5432 5418 5415 5409 5412 5429 5438 5445 5454 5452 5454 5455 5450 5451 5452 5457 5460 5457 5459 5464 5475 5477 5479 5502 5503 5509 5512 5514 5519 5531 5536
5532 5529 5524 5520 5517 5513 5505 5494 5486 5475 5464 5455 5446 5432 5420 5409 5407 5410 5422 5437 5438 5444 5442 5460 5473 5471 5477 5475 5474 5468 5466 5472 5470 5479 5485 5492 5502 5502 5500 5517 5517 5518 5525 5532
5529 5524 5520 5517 5512 5506 5501 5491 5485 5474 5461 5456 5447 5429 5417 5402 5398 5402 5413 5427 5434 5442 5449 5451 5465 5446 5464 5470 5470 5477 5476 5473 5466 5463 5482 5496 5497 5501 5505 5509 5515 5522 5521 5526
5526 5520 5516 5513 5509 5503 5498 5488 5485 5472 5461 5450 5442 5428 5417 5407 5399 5394 5397 5410 5424 5436 5442 5448 5440 5454 5457 5457 5460 5463 5464 5466 5465 5475 5465 5482 5493 5494 5502 5509 5507 5515 5520 5521
5521 5515 5512 5509 5505 5499 5495 5484 5481 5470 5456 5448 5443 5435 5421 5407 5396 5389 5397 5411 5410 5426 5442 5450 5453 5453 5437 5445 5457 5463 5459 5458 5462 5469 5480 5484 5486 5500 5508 5503 5509 5515 5515 5516
5516 5510 5507 5506 5502 5495 5491 5481 5478 5471 5458 5451 5443 5435 5428 5416 5406 5393 5388 5394 5397 5411 5411 5423 5438 5454 5428 5427 5452 5454 5466 5463 5463 5471 5478 5480 5481 5489 5492 5494 5502 5503 5507 5507
5511 5505 5503 5500 5497 5492 5487 5479 5474 5467 5456 5446 5441 5436 5426 5416 5406 5401 5392 5392 5403 5400 5399 5406 5418 5441 5440 5435 5445 5450 5461 5455 5459 5471 5480 5483 5485 5488 5489 5491 5494 5492 5495 5496
5504 5499 5497 5494 5491 5487 5482 5476 5469 5462 5449 5440 5440 5434 5426 5417 5409 5401 5396 5396 5397 5396 5398 5404 5419 5436 5434 5435 5439 5440 5452 5457 5462 5463 5473 5477 5482 5481 5483 5481 5480 5482 5482 5483
5498 5493 5490 5488 5484 5479 5475 5468 5463 5460 5450 5443 5434 5430 5424 5419 5412 5406 5397 5392 5390 5389 5394 5406 5425 5436 5435 5436 5431 5432 5447 5457 5458 5463 5469 5471 5473 5474 5476 5474 5473 5472 5477 5475
5490 5487 5482 5481 5475 5472 5467 5457 5457 5455 5449 5433 5424 5427 5423 5419 5415 5405 5398 5396 5392 5387 5396 5408 5418 5431 5431 5442 5447 5450 5451 5453 5455 5463 5466 5465 5465 5465 5468 5467 5467 5466 5464 5466
5481 5479 5475 5473 5467 5465 5458 5453 5450 5448 5444 5435 5419 5422 5424 5417 5412 5403 5394 5389 5389 5384 5387 5399 5418 5421 5432 5443 5447 5454 5452 5454 5456 5456 5458 5461 5462 5460 5455 5457 5457 5458 5453 5453
5473 5470 5467 5462 5459 5456 5452 5448 5447 5443 5437 5427 5392 5413 5416 5412 5406 5401 5397 5393 5392 5392 5386 5403 5417 5428 5433 5445 5450 5451 5451 5448 5449 5447 5448 5451 5448 5448 5449 5449 5450 5449 5447 5447
5464 5462 5456 5453 5448 5445 5441 5442 5440 5436 5428 5412 5408 5399 5384 5404 5399 5395 5399 5389 5394 5393 5395 5404 5413 5419 5426 5438 5440 5446 5444 5446 5446 5442 5442 5443 5443 5441 5441 5442 5441 5441 5440 5442
5454 5450 5447 5440 5435 5436 5437 5432 5423 5421 5419 5419 5410 5394 5386 5395 5393 5388 5395 5400 5403 5402 5402 5409 5411 5424 5426 5412 5413 5418 5425 5431 5435 5440 5440 5438 5439 5437 5436 5434 5434 5434 5433 5433
5445 5441 5435 5428 5428 5426 5420 5423 5416 5413 5416 5412 5402 5390 5396 5391 5392 5373 5381 5388 5398 5408 5402 5405 5416 5421 5403 5396 5403 5406 5414 5421 5423 5426 5426 5426 5428 5428 5428 5425 5422 5421 5421 5420
5445 5439 5430 5421 5419 5407 5398 5407 5412 5401 5403 5398 5388 5386 5383 5384 5388 5390 5384 5384 5390 5402 5402 5407 5414 5393 5389 5390 5398 5402 5405 5410 5411 5413 5413 5414 5414 5414 5414 5411 5408 5407 5407 5407
5434 5430 5418 5419 5403 5397 5388 5385 5365 5363 5379 5379 5377 5374 5380 5386 5382 5381 5382 5390 5390 5399 5407 5412 5391 5385 5386 5384 5389 5394 5396 5400 5403 5403 5405 5405 5404 5402 5400 5394 5390 5390 5389 5388
5427 5422 5408 5412 5395 5398 5386 5381 5380 5382 5374 5372 5368 5358 5365 5372 5372 5381 5374 5396 5394 5400 5381 5382 5381 5376 5377 5381 5382 5387 5389 5389 5392 5392 5393 5395 5396 5390 5385 5382 5379 5378 5376 5376
5410 5415 5415 5393 5398 5390 5378 5378 5381 5373 5370 5368 5364 5366 5358 5348 5369 5361 5369 5385 5402 5385 5375 5363 5364 5371 5371 5377 5380 5382 5383 5381 5377 5375 5370 5373 5374 5375 5372 5371 5369 5370 5370 5369
5399 5389 5391 5387 5380 5377 5385 5387 5384 5369 5364 5361 5369 5366 5355 5348 5346 5355 5364 5381 5368 5365 5355 5355 5356 5361 5366 5371 5376 5379 5379 5374 5373 5372 5370 5372 5373 5371 5367 5362 5360 5361 5360 5358
5388 5381 5389 5381 5365 5363 5360 5372 5363 5366 5365 5346 5359 5350 5344 5344 5326 5336 5346 5341 5344 5345 5344 5343 5350 5357 5361 5365 5369 5372 5370 5367 5366 5368 5368 5368 5368 5367 5366 5365 5361 5358 5359 5358